Regional Weather Roundup
Issued by NWS

Home | Current Version | Previous Version | Graphics & Text | Print | Product List | Glossary On
Versions: 1 2 3 4 5 6 7 8 9 10 11 12 13 14 15 16 17 18 19 20 21 22 23 24 25 26 27 28 29 30 31 32 33 34 35 36 37 38 39 40 41 42 43 44 45 46 47 48 49 50
000
ASUS43 KFSD 220202
RWRSD

WEATHER ROUNDUP FOR SOUTH DAKOTA
NATIONAL WEATHER SERVICE SIOUX FALLS SD
900 PM CDT TUE OCT 21 2014

NOTE: "FAIR" INDICATES FEW OR NO CLOUDS BELOW 12,000 FEET WITH NO
SIGNIFICANT WEATHER AND/OR OBSTRUCTIONS TO VISIBILITY.


SDZ001>005-009-010-012>017-220300-
NORTHWEST AND NORTH CENTRAL SOUTH DAKOTA

CITY           SKY/WX    TMP DP  RH WIND       PRES   REMARKS
FAITH            N/A     64  47  53 SE14      29.70S
MOBRIDGE       MOCLDY    69  40  34 SE17      29.71R
$$

SDZ012>016-024>037-041>051-057-063-072>074-220300-
SOUTHWEST AND SOUTH CENTRAL SOUTH DAKOTA

CITY           SKY/WX    TMP DP  RH WIND       PRES   REMARKS
RAPID CTY ARPT PTCLDY    64  44  48 SW7       29.76R
PIERRE         PTCLDY    68  37  32 SE18      29.77R
CUSTER         MOCLDY    60  37  42 SW9       29.89S
ELLSWORTH AFB  PTCLDY    67  45  44 S9        29.75R
PHILIP         CLEAR     68  49  50 S13       29.73S
PINE RIDGE     CLEAR     63  50  62 W3        29.82R
SPEARFISH      FAIR      59  39  47 S14       29.77S
WINNER         FAIR      70  48  45 S20G30    29.83S
$$

SDZ004>011-016>023-039-040-220300-
NORTHEAST SOUTH DAKOTA

CITY           SKY/WX    TMP DP  RH WIND       PRES   REMARKS
ABERDEEN       CLEAR     66  45  46 SE18      29.85R
WATERTOWN      CLEAR     60  42  51 SE15      29.95R
SISSETON         N/A     58  41  53 S14       29.93S
$$

SDZ017-020-022-023-036>040-048>070-220300-
SOUTHEAST SOUTH DAKOTA

CITY           SKY/WX    TMP DP  RH WIND       PRES   REMARKS
SIOUX FALLS    CLEAR     61  42  49 SE15G22   30.00R
HURON          CLEAR     64  42  44 SE12G18   29.89R
CHAMBERLAIN    CLEAR     63  37  37 SE12      29.86S
MITCHELL       CLEAR     65  44  46 SE13      29.92R
YANKTON        CLEAR     64  43  45 SE13      29.98R
$$

ABBREVIATIONS USED IN REMARKS
   TC - TEMPERATURE IN CELSIUS
  WCI - WIND CHILL INDEX
   HX - HEAT INDEX
  VSB - VISIBILITY




USA.gov is the U.S. government's official web portal to all federal, state and local government web resources and services.